CHA109 TAPA-TTPP

Flight info

Callsign CHA109
Flight time N/A
Altitude 23000
Route ANU A312 FOF/N0280F240 A324 GND DCT NAPKO
Aircraft E110/L-SDFGHRY/S

Departure

Time 2026-04-17 16:41
Airport V. C. Bird International Airport (TAPA)

Arrival

Time N/A
Airport Piarco International Airport (TTPP)
Time Latitude Longitude Altitude Speed Heading
2026-04-17 16:26 17.13779 -61.79425 60 ft 0 kts 117°
2026-04-17 16:37 17.13771 -61.79410 55 ft 5 kts 117°
2026-04-17 16:37 17.13723 -61.79403 60 ft 12 kts 225°
2026-04-17 16:37 17.13672 -61.79485 64 ft 15 kts 238°
2026-04-17 16:37 17.13604 -61.79602 62 ft 23 kts 240°
2026-04-17 16:38 17.13512 -61.79762 64 ft 23 kts 239°
2026-04-17 16:38 17.13441 -61.79840 65 ft 0 kts 185°
2026-04-17 16:39 17.13412 -61.79842 62 ft 9 kts 185°
2026-04-17 16:39 17.13326 -61.79855 57 ft 14 kts 221°
2026-04-17 16:39 17.13266 -61.79967 60 ft 20 kts 243°
2026-04-17 16:39 17.13185 -61.80107 62 ft 25 kts 222°
2026-04-17 16:40 17.13120 -61.80162 61 ft 9 kts 274°
2026-04-17 16:40 17.13149 -61.80159 60 ft 6 kts 59°
2026-04-17 16:40 17.13151 -61.80156 62 ft 0 kts 59°
2026-04-17 16:40 17.13193 -61.80083 62 ft 30 kts 58°
2026-04-17 16:41 17.13428 -61.79680 69 ft 94 kts 59°
2026-04-17 16:41 17.13763 -61.79074 475 ft 98 kts 61°
2026-04-17 16:41 17.14171 -61.78441 863 ft 114 kts 57°
2026-04-17 16:41 17.14693 -61.77776 1155 ft 119 kts 48°
2026-04-17 16:42 17.15284 -61.77200 1548 ft 113 kts 76°
2026-04-17 16:42 17.14719 -61.76979 548 ft 113 kts 178°
2026-04-17 16:42 17.13896 -61.76607 5530 ft 166 kts 148°
2026-04-17 16:42 17.13021 -61.76131 5189 ft 120 kts 149°
2026-04-17 16:43 17.12529 -61.75510 4840 ft 104 kts 113°
2026-04-17 16:43 17.12011 -61.75375 4495 ft 128 kts 239°
2026-04-17 16:43 17.11965 -61.76454 4466 ft 161 kts 287°
2026-04-17 16:43 17.12774 -61.76831 3494 ft 150 kts 353°
2026-04-17 16:44 17.13862 -61.76442 2026 ft 157 kts 36°
2026-04-17 16:44 17.14608 -61.75947 1923 ft 109 kts 62°
2026-04-17 16:44 17.14296 -61.75487 8864 ft 124 kts 147°
2026-04-17 16:44 17.13553 -61.75500 20014 ft 117 kts 232°
2026-04-17 16:45 17.13142 -61.75916 16893 ft 65 kts 251°
2026-04-17 16:45 17.12886 -61.76015 11795 ft 22 kts 28°
2026-04-17 16:45 17.12723 -61.76073 6658 ft 110 kts 25°
2026-04-17 16:45 17.13104 -61.75361 6780 ft 49 kts 85°
2026-04-17 16:46 17.13064 -61.74832 6826 ft 94 kts 107°
2026-04-17 16:46 17.12855 -61.74324 7191 ft 78 kts 156°
2026-04-17 16:46 17.11996 -61.74331 6845 ft 158 kts 185°
2026-04-17 16:46 17.11158 -61.74074 6016 ft 172 kts 51°
2026-04-17 16:47 17.12386 -61.74086 5650 ft 187 kts 355°
2026-04-17 16:47 17.12998 -61.73612 4941 ft 109 kts 90°
2026-04-17 16:47 17.13096 -61.73289 2636 ft 22 kts 196°
2026-04-17 16:47 17.13247 -61.73385 7 ft 32 kts 278°
2026-04-17 16:48 17.13257 -61.73379 6 ft 13 kts 172°